GW5626 Weather Reports


time (UTC)temp
C
wind
direction
speed
KPH
gust
KPH
rain 1hr
cm
rain 24hr
cm
rain mn
cm
humidity
%
barometer
mb
20260503224005 32 194 3.2 9.7 0.00 0.00 0.00 27 1020.0
20260503223503 32 126 3.2 4.8 0.00 0.00 0.00 27 1020.4
20260503222958 32 221 6.4 11.3 0.00 0.00 0.00 27 1020.1
20260503222457 32 59 4.8 9.7 0.00 0.00 0.00 28 1020.2
20260503221954 32 48 4.8 9.7 0.00 0.00 0.00 28 1020.5
20260503221453 32 13 3.2 12.9 0.00 0.00 0.00 28 1020.6
20260503220949 32 146 4.8 9.7 0.00 0.00 0.00 29 1020.6
20260503220445 31 200 4.8 9.7 0.00 0.00 0.00 28 1020.7
20260503215942 31 156 6.4 12.9 0.00 0.00 0.00 28 1020.8
20260503215439 31 285 1.6 11.3 0.00 0.00 0.00 29 1020.8
20260503214937 31 166 3.2 11.3 0.00 0.00 0.00 27 1020.9
20260503214434 31 221 3.2 4.8 0.00 0.00 0.00 28 1020.9
20260503213931 31 58 4.8 9.7 0.00 0.00 0.00 29 1021.2
20260503213430 30 171 8.0 12.9 0.00 0.00 0.00 30 1020.9
20260503212925 30 8 11.3 14.5 0.00 0.00 0.00 32 1020.9
20260503212423 30 140 3.2 9.7 0.00 0.00 0.00 33 1021.0
20260503211920 30 56 4.8 9.7 0.00 0.00 0.00 33 1021.2
20260503211417 30 183 4.8 9.7 0.00 0.00 0.00 32 1021.2
20260503210912 30 42 6.4 6.4 0.00 0.00 0.00 33 1021.2
20260503210410 30 251 3.2 9.7 0.00 0.00 0.00 34 1021.4
20260503205904 30 48 4.8 12.9 0.00 0.00 0.00 33 1021.4
20260503205402 30 86 4.8 9.7 0.00 0.00 0.00 33 1021.5
20260503204858 30 94 3.2 4.8 0.00 0.00 0.00 35 1021.5
20260503204355 30 205 3.2 6.4 0.00 0.00 0.00 34 1021.6
20260503203852 30 62 1.6 4.8 0.00 0.00 0.00 37 1021.8
20260503203349 30 171 1.6 3.2 0.00 0.00 0.00 41 1022.0
20260503202846 29 212 3.2 11.3 0.00 0.00 0.00 37 1021.8
20260503202345 29 48 3.2 4.8 0.00 0.00 0.00 39 1022.0
20260503201843 28 112 3.2 9.7 0.00 0.00 0.00 38 1022.0
20260503201339 28 102 3.2 6.4 0.00 0.00 0.00 39 1022.0
20260503200837 28 120 6.4 11.3 0.00 0.00 0.00 38 1021.7
20260503200332 28 203 3.2 9.7 0.00 0.00 0.00 39 1022.0
20260503195830 28 192 3.2 6.4 0.00 0.00 0.00 39 1022.2
20260503195326 27 43 3.2 12.9 0.00 0.00 0.00 40 1022.1
20260503194824 27 47 6.4 11.3 0.00 0.00 0.00 39 1022.4
20260503194319 27 162 4.8 11.3 0.00 0.00 0.00 40 1022.4
20260503193816 27 75 3.2 4.8 0.00 0.00 0.00 46 1022.5
20260503193312 27 37 1.6 12.9 0.00 0.00 0.00 42 1022.7
20260503192808 27 136 3.2 6.4 0.00 0.00 0.00 42 1022.6
20260503192305 27 150 3.2 9.7 0.00 0.00 0.00 43 1022.5
20260503191800 27 67 1.6 9.7 0.00 0.00 0.00 44 1022.8
20260503191257 26 192 4.8 9.7 0.00 0.00 0.00 43 1022.6
20260503190754 26 280 3.2 11.3 0.00 0.00 0.00 45 1022.9
20260503190251 26 72 3.2 6.4 0.00 0.00 0.00 46 1022.8
20260503185748 26 83 1.6 6.4 0.00 0.00 0.00 47 1022.8
20260503185243 26 186 1.6 4.8 0.00 0.00 0.00 47 1023.0
20260503184738 26 109 6.4 9.7 0.00 0.00 0.00 46 1023.1
20260503184235 25 220 0.0 4.8 0.00 0.00 0.00 50 1023.1
20260503183731 25 131 1.6 4.8 0.00 0.00 0.00 51 1023.0
20260503183229 25 96 1.6 6.4 0.00 0.00 0.00 51 1023.2
20260503182726 25 209 3.2 6.4 0.00 0.00 0.00 50 1023.2
20260503182225 25 174 0.0 6.4 0.00 0.00 0.00 54 1023.4
20260503181721 24 25 3.2 3.2 0.00 0.00 0.00 53 1023.1
20260503181218 24 67 1.6 3.2 0.00 0.00 0.00 54 1023.3
20260503180714 23 176 0.0 3.2 0.00 0.00 0.00 57 1023.4
20260503180213 24 62 4.8 4.8 0.00 0.00 0.00 53 1023.3
20260503175710 23 304 1.6 4.8 0.00 0.00 0.00 51 1023.6
20260503175208 23 210 3.2 4.8 0.00 0.00 0.00 51 1023.5
20260503174703 23 198 1.6 1.6 0.00 0.00 0.00 55 1023.4
20260503174201 22 186 3.2 3.2 0.00 0.00 0.00 54 1023.6
20260503173656 22 179 0.0 3.2 0.00 0.00 0.00 56 1023.6
20260503173152 22 279 1.6 3.2 0.00 0.00 0.00 57 1023.6
20260503172650 22 114 3.2 4.8 0.00 0.00 0.00 58 1023.7
20260503172147 22 168 0.0 4.8 0.00 0.00 0.00 58 1023.7
20260503171643 22 205 3.2 4.8 0.00 0.00 0.00 58 1023.4
20260503171140 21 204 1.6 4.8 0.00 0.00 0.00 57 1023.9
20260503170637 21 151 0.0 3.2 0.00 0.00 0.00 59 1023.8
20260503170134 21 67 3.2 4.8 0.00 0.00 0.00 60 1023.7
20260503150525 15 192 0.0 1.6 0.00 0.00 0.00 84 1024.1
20260503131419 11 198 0.0 0.0 0.00 0.00 0.00 96 1023.7
20260503130915 11 198 0.0 0.0 0.00 0.00 0.00 96 1023.8
20260503130413 11 182 0.0 0.0 0.00 0.00 0.00 96 1023.6
20260503110817 11 221 0.0 0.0 0.00 0.00 0.00 94 1024.2
20260503110314 11 221 0.0 0.0 0.00 0.00 0.00 93 1024.2
20260503100240 12 218 0.0 0.0 0.00 0.00 0.00 90 1024.2
20260503090159 13 195 0.0 1.6 0.00 0.00 0.00 86 1024.2
20260503081636 14 181 0.0 1.6 0.00 0.00 0.00 86 1024.4
20260503081132 15 172 0.0 0.0 0.00 0.00 0.00 86 1024.2
20260503080628 15 205 0.0 0.0 0.00 0.00 0.00 85 1024.1
20260503080125 15 19 1.6 3.2 0.00 0.00 0.00 85 1024.1
20260503072602 15 216 0.0 0.0 0.00 0.00 0.00 82 1024.3
20260503072059 16 187 0.0 1.6 0.00 0.00 0.00 81 1024.1
20260503071556 15 196 1.6 3.2 0.00 0.00 0.00 82 1024.3
20260503071053 15 181 0.0 0.0 0.00 0.00 0.00 82 1024.4
20260503070549 16 197 0.0 0.0 0.00 0.00 0.00 80 1024.2
20260503055009 16 194 1.6 1.6 0.00 0.03 0.03 78 1024.6
20260503054504 16 190 1.6 1.6 0.00 0.03 0.03 78 1024.7
20260503054002 16 194 0.0 0.0 0.00 0.03 0.03 78 1024.8
20260503053500 16 224 0.0 0.0 0.00 0.03 0.03 78 1024.9
20260503052956 16 224 0.0 0.0 0.00 0.03 0.03 77 1024.9
20260503052454 16 224 0.0 0.0 0.00 0.03 0.03 77 1024.9
20260503051950 16 224 0.0 0.0 0.00 0.03 0.03 76 1024.8
20260503051446 17 224 0.0 0.0 0.00 0.03 0.03 76 1024.7
20260503050943 17 215 0.0 0.0 0.00 0.03 0.03 75 1024.9
20260503050438 17 200 0.0 0.0 0.00 0.03 0.03 74 1024.8
20260503045937 17 207 0.0 0.0 0.00 0.03 0.03 74 1024.5
20260503045434 17 196 0.0 1.6 0.00 0.03 0.03 74 1024.6
20260503044931 17 206 0.0 0.0 0.00 0.03 0.03 73 1024.7
20260503044427 17 192 0.0 3.2 0.00 0.03 0.03 73 1024.8
20260503043925 17 189 0.0 1.6 0.00 0.03 0.03 73 1024.8
20260503043421 17 198 0.0 1.6 0.00 0.03 0.03 73 1024.5
20260503042918 17 192 0.0 1.6 0.00 0.03 0.03 73 1024.8
20260503042415 17 189 1.6 1.6 0.00 0.03 0.03 73 1024.7
20260503041911 17 193 0.0 0.0 0.00 0.03 0.03 72 1024.7
20260503041408 18 195 0.0 0.0 0.00 0.03 0.03 72 1024.6
20260503040906 18 197 0.0 0.0 0.00 0.03 0.03 71 1024.5
20260503040403 18 193 0.0 0.0 0.00 0.03 0.03 70 1024.6
20260503035859 18 185 1.6 3.2 0.00 0.03 0.03 69 1024.5
20260503035356 19 192 1.6 1.6 0.00 0.03 0.03 69 1024.4
20260503034854 19 251 0.0 0.0 0.00 0.03 0.03 68 1024.3
20260503034351 20 183 0.0 0.0 0.00 0.03 0.03 67 1024.2
20260503033848 20 183 0.0 0.0 0.00 0.03 0.03 67 1024.1
20260503033346 20 183 0.0 0.0 0.00 0.03 0.03 66 1024.0
20260503032844 20 182 0.0 0.0 0.00 0.03 0.03 66 1023.9
20260503032343 20 190 0.0 0.0 0.00 0.03 0.03 65 1023.8
20260503031840 20 186 0.0 0.0 0.00 0.03 0.03 65 1023.9
20260503031338 20 171 0.0 0.0 0.00 0.03 0.03 65 1023.7
20260503030834 21 155 0.0 3.2 0.00 0.03 0.03 64 1023.5
20260503030330 21 145 3.2 3.2 0.00 0.03 0.03 63 1023.3
20260503025826 21 77 1.6 4.8 0.00 0.03 0.03 63 1023.3
20260503025324 21 190 0.0 1.6 0.00 0.03 0.03 62 1023.2
20260503024821 22 138 1.6 1.6 0.00 0.03 0.03 59 1023.3
20260503024317 22 154 1.6 4.8 0.00 0.03 0.03 56 1023.0
20260503023815 22 138 4.8 4.8 0.00 0.03 0.03 55 1022.8
20260503023312 23 163 1.6 3.2 0.00 0.03 0.03 55 1022.7
20260503022809 23 172 1.6 1.6 0.00 0.03 0.03 54 1022.6
20260503022308 23 163 0.0 3.2 0.00 0.03 0.03 54 1022.6
20260503021805 23 156 0.0 3.2 0.00 0.03 0.03 54 1022.9
20260503021301 23 176 0.0 3.2 0.00 0.03 0.03 54 1022.6
20260503020759 23 31 1.6 3.2 0.00 0.03 0.03 54 1022.6
20260503020256 23 12 1.6 3.2 0.00 0.03 0.03 54 1022.4
20260503015752 23 161 0.0 1.6 0.00 0.03 0.03 54 1022.5
20260503015249 23 7 1.6 3.2 0.00 0.03 0.03 54 1022.6
20260503014745 23 170 4.8 9.7 0.00 0.03 0.03 52 1022.7
20260503014243 24 42 1.6 6.4 0.00 0.03 0.03 52 1022.5
20260503013740 25 176 1.6 4.8 0.00 0.03 0.03 50 1022.5
20260503013238 25 194 1.6 3.2 0.00 0.03 0.03 49 1022.6
20260503012735 25 172 0.0 4.8 0.00 0.03 0.03 49 1022.5
20260503012232 25 165 1.6 4.8 0.00 0.03 0.03 49 1022.5
20260503011728 25 186 1.6 3.2 0.00 0.03 0.03 50 1022.6
20260503011226 25 128 4.8 4.8 0.00 0.03 0.03 49 1022.5
20260503010722 25 95 1.6 4.8 0.00 0.03 0.03 50 1022.5
20260503010219 25 131 1.6 3.2 0.00 0.03 0.03 50 1022.5
20260503005716 25 158 1.6 1.6 0.00 0.03 0.03 51 1022.8
20260503005213 25 100 3.2 4.8 0.00 0.03 0.03 51 1022.6
20260503004709 25 127 8.0 11.3 0.00 0.03 0.03 50 1022.8
20260503004208 25 96 1.6 11.3 0.00 0.03 0.03 50 1022.8
20260503003705 25 75 3.2 6.4 0.00 0.03 0.03 50 1022.6
20260503003202 25 199 1.6 4.8 0.00 0.03 0.03 50 1022.7
20260503002658 26 121 4.8 6.4 0.00 0.03 0.03 49 1022.6
20260503002155 25 180 0.0 4.8 0.00 0.03 0.03 50 1022.7
20260503001651 25 68 3.2 4.8 0.00 0.03 0.03 50 1022.6
20260503001148 25 199 1.6 4.8 0.00 0.03 0.03 51 1022.6
20260503000646 25 193 3.2 6.4 0.00 0.03 0.03 49 1022.7
20260503000143 25 89 3.2 3.2 0.00 0.03 0.03 50 1022.8
20260502235639 25 134 0.0 4.8 0.00 0.03 0.03 50 1022.8
20260502235138 25 83 1.6 3.2 0.00 0.03 0.03 51 1023.0
20260502234633 25 127 3.2 9.7 0.00 0.03 0.03 52 1023.0
20260502234131 25 104 1.6 4.8 0.00 0.03 0.03 51 1023.1
20260502233627 25 74 3.2 9.7 0.00 0.03 0.03 50 1023.1
20260502233124 25 251 4.8 6.4 0.00 0.03 0.03 50 1023.2
20260502232619 25 68 3.2 4.8 0.00 0.03 0.03 51 1023.3
20260502232117 25 62 4.8 6.4 0.00 0.03 0.03 50 1023.3
20260502231614 25 122 3.2 3.2 0.00 0.03 0.03 50 1023.3
20260502231112 25 56 4.8 6.4 0.00 0.03 0.03 50 1023.5
20260502230610 25 193 1.6 9.7 0.00 0.03 0.03 49 1023.7
20260502230108 24 321 3.2 6.4 0.00 0.03 0.03 50 1023.7
20260502225603 24 184 6.4 11.3 0.00 0.03 0.03 50 1023.7
20260502225100 24 187 1.6 9.7 0.00 0.03 0.03 51 1023.8
20260502224556 23 153 3.2 9.7 0.00 0.03 0.03 53 1023.9
20260502224053 24 85 1.6 9.7 0.00 0.03 0.03 52 1024.0